Location: Bionde
(45.2000°N, 11.1000°E)
Time: 08:09:50
(UTC+00:00)

Daily predictions for brighter satellites

Satellite Brightness Start Highest point End
(mag) Time Altitude Azimuth Time Altitude Azimuth Time Altitude Azimuth
Cosmos 1025 Rocket 3.7 19:35:18 10° SSE 19:39:09 35° E 19:43:04 10° NNE
Cosmos 1709 Rocket 4.3 19:33:59 10° N 19:40:02 53° ENE 19:46:08 10° SSE
MOS 1 4.4 19:34:39 10° SSE 19:40:21 85° ENE 19:46:06 10° NNW
Okean 1 Rocket 3.6 19:37:02 10° NNW 19:41:28 62° W 19:45:51 10° S
Cosmos 1455 Rocket 3.4 19:38:18 10° N 19:42:31 47° ENE 19:46:41 10° SSE
Cosmos 1603 4.4 19:39:18 10° SW 19:44:55 61° WNW 19:50:38 10° NNE
Atlas Centaur 2 3.8 19:44:46 10° SSW 19:46:08 11° SSW 19:47:26 10° S
SL-8 R/B 4.3 19:41:56 10° W 19:46:41 59° N 19:51:28 10° ENE
Meteor 2-5 Rocket 3.8 19:49:57 10° S 19:55:21 58° E 20:00:48 10° NNE
Cosmos 1607 4.0 19:49:30 10° SSW 19:55:38 60° ESE 20:01:43 10° NE
USA 245 4.1 19:51:24 10° SE 19:55:55 44° ENE 19:59:36 10° N
SPOT 1/Viking Rocket 3.6 19:50:55 10° SSE 19:56:04 87° WSW 20:01:16 10° NNW
Cosmos 1455 3.3 19:53:57 10° NNE 19:57:18 29° ENE 20:00:32 11° SE
Ariane Rocket 3.0 19:54:07 10° SSE 19:59:14 86° ENE 20:04:22 10° NNW
USA 267 4.0 19:55:35 10° ENE 20:01:07 29° SE 20:06:37 10° S
Cosmos 1954 Rocket 4.3 19:57:18 10° NNW 20:02:30 55° ENE 20:07:25 11° SE
S3M 4.4 20:02:00 10° SSW 20:08:09 67° W 20:14:17 10° N
SPOT 5 3.3 20:07:10 11° SE 20:11:05 42° ENE 20:15:11 10° N
Cosmos 1697 Rocket 4.5 20:07:34 10° N 20:11:42 20° NE 20:15:49 10° E
Meteor 2-10 Rocket 4.2 20:07:31 10° NNW 20:12:24 52° W 20:17:15 10° S
H-2A R/B 3.2 20:09:41 10° N 20:13:55 47° WNW 20:18:11 10° SW
Cosmos 1975 Rocket 3.2 20:11:02 10° SSW 20:15:30 79° W 20:19:58 10° N
Tiangong 1.7 20:13:04 10° WSW 20:16:05 40° S 20:18:24 15° ESE
CARTOSAT-1 3.6 20:12:42 10° SSE 20:17:00 88° WSW 20:21:21 10° NNW
IRAS Rocket 4.3 20:15:01 10° NNE 20:20:40 89° ESE 20:26:14 10° SSW
Cosmos 2084 3.1 20:16:55 10° SW 20:20:45 85° SE 20:24:37 10° NE
Cosmos 1656 4.4 20:16:51 10° NNW 20:22:02 41° ENE 20:26:30 14° ESE
USA 102 4.2 20:25:26 22° SE 20:28:30 82° NE 20:36:23 10° NNW
USA 276 1.8 20:26:03 10° WSW 20:29:03 78° SSE 20:32:03 10° ENE
Spot 2 Rocket 3.6 20:25:44 14° SSE 20:30:07 69° ENE 20:35:13 10° N
ATLAS 2AS CENTAUR R/B 2.7 20:25:21 10° NW 20:32:31 84° NE 20:37:59 16° SE
Meteor 1-24 Rocket 3.7 20:27:42 10° SSW 20:33:00 79° W 20:38:27 10° N
Cosmos 1544 Rocket 3.5 20:30:00 10° N 20:34:21 86° E 20:37:54 15° S
USA 234 4.3 20:29:44 10° E 20:35:47 42° NNE 20:41:52 10° NW
Cosmos 1452 Rocket 4.0 20:31:41 12° S 20:36:13 41° ESE 20:41:08 10° NE
Lacrosse 5 1.9 20:31:53 10° NW 20:37:01 80° NE 20:40:57 17° SE
X-37B 0.1 20:36:26 10° WSW 20:39:13 68° SSE 20:41:44 12° E
Cosmos 1833 Rocket 3.6 20:36:05 16° SSE 20:39:25 28° ESE 20:44:09 10° NE
Terra 2.0 20:38:02 18° SSE 20:41:29 59° ENE 20:46:11 10° N
Cosmos 2184 Rocket 4.1 20:41:10 10° N 20:47:18 62° E 20:51:50 19° SSE
Resurs 01 Rocket 3.8 20:44:58 10° SW 20:48:22 21° W 20:51:48 10° NW
Cosmos 724 4.2 20:45:46 10° SSW 20:51:35 85° ESE 20:57:24 10° NE
Helios 1A Rocket 3.0 20:51:31 19° S 20:54:22 72° WSW 20:58:28 10° NNW
CZ-4B R/B 4.1 20:54:26 10° NNW 20:56:03 14° WNW 20:57:38 10° W
Lacrosse 5 rocket 2.1 20:56:24 10° WNW 21:00:02 38° SW 21:01:56 23° S
Cosmos 1271 Rocket 3.5 20:57:46 10° NNW 21:01:37 48° W 21:04:25 17° SSW
Cosmos 2082 Rocket 3.7 21:01:01 17° ESE 21:02:21 19° E 21:06:10 10° ENE
NOSS 2-1 (E) 4.2 21:02:21 10° NW 21:07:07 74° SW 21:11:18 23° SSE
ERS-1 Rocket 3.2 21:03:40 18° S 21:07:21 64° WSW 21:12:23 10° NNW
RESURS DK-1 2.7 21:07:07 10° NNW 21:11:11 54° ENE 21:13:07 28° SE
CZ-2C R/B 4.0 21:12:45 10° N 21:17:20 66° WNW 21:21:17 13° SSW
ARIANE 5 R/B 2.7 21:18:10 27° S 21:20:35 76° WSW 21:25:03 10° NNW
Cosmos 1741 Rocket 4.0 21:17:40 10° NNW 21:23:01 90° ENE 21:25:51 29° SSE
Cosmos 1825 4.5 21:24:12 11° E 21:24:19 11° E 21:25:34 10° ENE
Cosmos 2344 4.5 21:20:09 10° NW 21:28:58 68° NE 21:38:57 17° SE
SL-8 R/B 3.9 21:24:44 10° WNW 21:29:33 73° NNE 21:33:28 16° E
GP-B 3.7 21:28:18 10° NNE 21:32:32 41° E 21:33:53 32° SE
Cosmos 1455 4.4 21:29:44 10° NW 21:32:35 20° W 21:35:18 11° SW
Cosmos 2074 Rocket 4.5 21:29:38 10° NNW 21:35:46 57° W 21:40:08 19° SSW
Cosmos 2327 Rocket 4.5 21:30:37 10° N 21:37:01 87° E 21:40:33 28° S
COSMOS 2406 3.4 21:37:52 29° S 21:40:33 52° ESE 21:46:08 10° NE
ASTEX 1 3.5 21:35:42 10° NNE 21:40:41 64° E 21:42:45 34° SSE
USA 267 3.3 21:38:02 10° NE 21:44:36 87° NW 21:51:10 10° SW
Cosmos 2369 4.2 21:39:31 10° NNW 21:45:08 52° ENE 21:48:09 26° ESE
SL-16 R/B 4.4 21:42:14 10° N 21:45:54 17° NE 21:49:33 10° E
Cosmos 2228 3.8 21:46:16 10° NNW 21:50:17 43° W 21:52:05 27° SSW
Nadezhda 1 Rocket 4.2 21:47:09 19° SSW 21:51:33 67° W 21:57:36 10° N
Tiangong 3.6 21:50:09 10° WSW 21:50:37 12° WSW 21:50:37 12° WSW
Cosmos 962 Rocket 4.5 21:46:31 10° N 21:52:46 79° E 21:55:52 32° SSE
Cosmos 1980 Rocket 2.6 21:48:10 10° NNW 21:53:46 54° ENE 21:56:37 28° SE
BREEZE-M DEB (TANK) 4.4 21:37:51 10° SW 21:54:13 65° SSE 21:58:35 10° ENE
Cosmos 1606 Rocket 3.8 21:51:08 10° NNW 21:55:25 61° W 21:56:56 37° SSW
Cosmos 1892 2.9 21:55:58 46° ESE 21:56:18 47° E 21:59:56 10° NNE
Cosmos 1697 Rocket 2.6 21:50:42 10° NNW 21:56:21 79° WSW 21:58:44 36° SSE
SJ 16-02 4.1 21:58:25 10° NE 21:58:56 10° NE 21:59:27 10° ENE
Meteor 1-11 4.2 21:57:30 35° S 21:59:55 70° E 22:05:30 10° NNE
Cosmos 2084 Rocket 4.0 21:57:30 10° NNW 22:01:18 47° NE 22:02:43 32° E
USA 276 3.7 22:02:09 10° WNW 22:04:56 34° N 22:07:44 10° ENE
Cosmos 1328 4.4 22:04:04 31° SW 22:05:39 51° WNW 22:09:35 10° N
In-Cosmos 22 Rocket 4.4 22:06:27 37° SSE 22:08:24 55° E 22:13:46 10° NNE
X-37B 2.4 22:11:52 10° W 22:12:57 21° W 22:12:57 21° W
Cosmos 1408 2.3 22:15:25 71° SW 22:15:40 77° W 22:19:07 10° N
USA 234 3.2 22:14:25 26° SE 22:18:27 88° SW 22:25:03 10° NW
Lacrosse 5 3.4 22:15:46 10° WNW 22:19:28 20° WSW 22:20:08 20° SW
Terra 4.0 22:16:55 11° SW 22:19:37 17° W 22:22:40 10° NW
Cosmos 1726 Rocket 4.3 22:16:03 10° NNW 22:20:09 43° W 22:21:23 34° SW
ATLAS 2AS CENTAUR R/B 4.3 22:17:40 10° WNW 22:22:30 20° WSW 22:25:25 15° SW
Cosmos 1833 Rocket 3.6 22:17:42 10° SW 22:23:05 46° WNW 22:28:31 10° NNE
Cosmos 2322 Rocket 4.1 22:20:55 10° N 22:25:21 23° NE 22:29:46 10° E
Cosmos 1867 3.8 22:23:25 10° NNW 22:28:53 67° NE 22:31:17 34° SE
ATLAS 5 CENTAUR R/B 2.7 22:30:25 24° E 22:30:25 24° E 22:32:46 10° ENE
Cosmos 2278 4.0 22:24:13 10° NNW 22:29:54 61° ENE 22:32:24 33° SE
SL-8 Rocket 4.0 22:24:54 10° N 22:31:10 77° W 22:33:46 37° S
Cosmos 1812 Rocket 4.3 22:29:09 10° N 22:33:25 42° ENE 22:34:25 36° ESE
ALOS 2 2.6 22:32:45 52° SE 22:33:42 73° ENE 22:38:06 10° N
Cosmos 1302 Rocket 4.2 22:31:56 31° SW 22:34:25 68° WNW 22:39:37 10° NNE
Cosmos 2218 Rocket 4.1 22:36:50 10° NNW 22:43:15 75° W 22:45:53 38° S
Cosmos 2082 Rocket 2.4 22:42:49 29° SW 22:45:48 71° WNW 22:51:32 10° NNE
Cosmos 1602 Rocket 3.6 22:45:32 55° SE 22:46:03 60° E 22:50:19 10° NNE
Cosmos 2366 rocket 4.1 22:40:42 10° NNW 22:47:00 70° W 22:49:34 37° SSW
RESURS DK-1 4.5 22:46:20 10° WNW 22:48:43 15° WSW 22:48:58 15° WSW
H-2A R/B 3.5 22:46:11 10° N 22:50:24 78° WNW 22:51:09 58° SW
Spot 4 4.4 22:52:43 39° SW 22:53:48 46° W 22:58:25 10° NNW
Cosmos 2058 Rocket 4.2 22:50:08 10° NNW 22:54:06 33° W 22:55:04 30° WSW
Cosmos 1825 2.6 22:58:50 49° W 22:59:09 51° W 23:02:49 10° N
Cosmos 2360 Rocket 3.9 23:00:09 10° N 23:05:01 28° NE 23:09:52 10° ESE
ERS-2 2.0 23:02:25 10° NNE 23:05:53 76° ENE 23:05:53 76° ENE
Cosmos 968 Rocket 4.3 23:01:33 10° NW 23:06:16 36° WSW 23:07:22 32° SW
Cosmos-2242 2.9 23:03:28 10° N 23:07:43 75° E 23:08:16 64° SE
Cosmos 1626 Rocket 4.2 23:10:22 40° WSW 23:11:19 47° WNW 23:15:31 10° N
SL-8 R/B 4.2 23:07:24 10° WNW 23:11:22 41° SW 23:11:22 41° SW
Cosmos 2058 3.3 23:16:21 47° ESE 23:16:43 49° E 23:20:47 10° NNE
Cosmos 1869 4.3 23:13:28 10° NNW 23:16:59 34° W 23:17:08 34° W
Cosmos 1606 2.7 23:14:16 10° N 23:18:06 67° E 23:18:18 66° ESE
BREEZE-M DEB (TANK) 4.4 23:14:40 10° WNW 23:18:31 75° NNE 23:35:51 10° ESE
Cosmos 1934 Rocket 4.4 23:13:45 10° N 23:19:43 54° ENE 23:22:23 32° SE
ADEOS Rocket 3.7 23:20:28 35° SSW 23:23:27 56° W 23:30:56 10° NNW
Cosmos 1825 Rocket 3.5 23:22:58 58° SE 23:23:29 65° E 23:27:47 10° NNE
Cosmos 1633 3.1 23:25:15 47° WNW 23:25:15 47° WNW 23:28:34 10° N
CRYOSAT 2 4.5 23:25:28 47° SE 23:26:45 67° E 23:31:38 10° N
SL-16 R/B 2.2 23:25:12 10° NNW 23:30:55 83° ENE 23:33:07 39° SSE
Cosmos 1980 Rocket 3.5 23:32:51 10° NW 23:37:22 25° WSW 23:38:21 24° WSW
SJ 16-02 1.4 23:33:51 10° NNW 23:38:19 76° ENE 23:39:13 55° SE
Gbstr 26 Del rocket 4.4 23:39:34 27° ESE 23:39:34 27° ESE 23:43:28 10° ENE
USA 276 3.5 23:38:14 10° WNW 23:41:04 36° N 23:43:53 10° E
Meteor 2-2 Rocket 4.3 23:37:31 10° N 23:43:34 85° E 23:45:54 40° SSE
Cosmos 1821 Rocket 4.3 23:37:39 10° NNW 23:43:43 52° W 23:45:54 36° SW
Cosmos 2219 Rocket 4.1 23:40:39 10° N 23:45:23 26° NE 23:50:07 10° ESE
Cosmos 1340 Rocket 2.7 23:48:44 69° SE 23:49:00 72° E 23:52:56 10° NNE
CZ-2D R/B 3.9 23:47:35 10° NE 23:51:21 20° E 23:53:35 15° ESE
